Wind_Speed
20 20 21 22 22 22 23 23 22 22 23 24 25 26 26 26 27 29 30 30 31 31 31 30 30 29 29 28 28 27 26 26 25 25 24 24 23 23 23 23 23 23
18 18 19 21 21 20 20 20 19 19 21 23 24 25 26 25 25 26 27 27 28 28 27 27 26 26 26 26 25 25 24 23 23 22 21 21 20 20 20 20 20 20
17 17 18 19 19 18 18 18 18 19 21 23 24 25 24 24 23 24 24 25 26 25 25 24 24 24 24 23 23 22 21 20 19 19 18 17 17 17 17 17 17 17
16 17 18 18 17 16 16 17 18 19 22 24 25 24 23 22 21 22 23 23 23 23 23 22 21 21 20 20 19 18 17 16 15 14 14 13 13 13 13 13 13 14
16 16 17 17 16 15 16 17 18 20 22 24 24 22 20 18 18 19 20 21 21 21 21 19 18 17 16 15 14 13 12 11 11 10 10 10 9 9 9 9 9 10
16 16 16 16 16 15 16 18 19 20 21 21 20 17 16 15 16 17 18 19 19 19 18 17 16 15 13 11 10 9 8 8 7 7 6 6 6 6 6 6 6 6
16 16 16 16 16 16 17 17 18 19 19 18 16 15 14 15 16 17 17 17 17 16 15 14 13 12 10 8 6 5 5 4 3 3 4 4 4 4 4 4 4 4
16 16 16 16 16 16 16 17 17 17 17 16 15 15 14 14 16 16 15 14 13 11 10 9 8 6 4 3 2 2 1 1 2 3 4 4 4 4 4 3 3 4
15 16 16 16 16 15 15 16 16 16 16 15 14 14 13 13 13 13 11 11 9 7 6 4 3 4 4 5 5 5 5 5 5 5 5 5 5 5 4 3 4 4
14 15 15 15 16 16 15 15 15 15 15 15 14 13 13 12 12 11 10 8 6 3 3 4 5 7 9 9 9 8 8 7 7 6 7 6 6 6 5 5 5 6
12 12 13 14 14 15 15 15 15 15 15 14 14 14 13 13 12 11 8 6 5 7 9 10 10 12 13 12 10 10 10 9 8 8 8 8 8 8 7 7 7 8
12 11 11 11 12 13 14 15 15 15 15 15 15 15 15 15 14 13 12 14 15 16 16 16 17 17 15 13 11 10 10 11 11 11 11 10 11 10 10 10 11 11
14 13 12 11 11 11 12 13 14 15 15 16 16 16 16 16 16 17 19 21 21 20 18 18 19 20 17 15 13 12 13 14 15 14 14 14 15 14 13 13 13 13
17 16 15 14 13 12 12 12 12 13 14 14 15 16 17 18 18 18 20 21 21 23 24 23 23 23 20 17 15 14 16 17 18 18 17 17 17 16 15 13 13 13
20 19 18 17 16 15 14 13 13 12 12 12 13 13 15 16 17 17 19 21 21 24 26 26 24 21 19 18 17 16 16 17 17 17 17 17 16 14 13 13 13 13
23 22 21 19 18 18 17 16 15 15 14 13 13 13 13 14 15 15 17 19 20 21 22 23 23 20 18 19 18 17 16 16 17 17 16 16 15 14 14 15 15 15
27 25 24 22 20 19 19 18 18 18 17 17 17 16 15 15 16 16 17 18 19 19 20 20 21 21 21 22 21 19 18 19 19 19 19 18 17 17 18 19 19 19
28 26 24 22 21 21 20 20 21 21 20 20 20 19 19 19 19 18 18 19 19 20 20 20 20 21 22 24 24 23 21 21 22 22 22 21 20 20 20 22 23 23
30 27 25 24 23 22 22 22 22 22 22 22 22 23 23 22 21 21 21 21 21 21 21 21 21 22 22 24 25 25 24 24 24 24 23 22 22 21 21 23 24 25
31 29 29 27 25 23 23 24 25 24 24 24 25 26 27 26 25 24 24 24 23 23 22 22 23 24 24 25 26 27 26 26 26 26 25 24 24 24 25 26 27 27
33 32 32 29 26 25 25 25 26 27 26 27 28 28 29 30 29 29 28 28 27 26 26 26 27 27 27 28 28 29 29 29 29 29 28 28 28 29 29 30 30 31
35 34 33 30 28 27 27 27 27 27 27 29 30 31 32 33 33 33 32 31 31 31 31 31 31 31 31 32 32 32 33 33 33 33 33 32 32 32 33 33 34 34
37 36 34 33 31 30 28 28 29 29 30 32 33 34 35 36 37 37 36 35 35 35 35 35 36 35 35 36 36 36 37 37 37 37 37 36 36 36 37 37 38 38
40 39 38 37 35 34 31 29 29 31 34 35 35 35 37 39 39 38 37 37 37 38 38 38 38 38 39 39 40 41 41 41 41 41 40 39 38 39 40 41 41 41
44 43 42 40 39 37 35 33 31 32 35 36 36 36 38 40 39 37 36 37 37 39 39 38 38 38 38 39 40 42 44 45 45 45 44 42 42 44 46 45 44 44
48 46 45 43 42 40 38 36 34 35 38 42 43 43 43 43 41 39 38 38 39 40 40 40 41 42 42 41 39 39 40 43 45 45 45 44 44 47 47 45 44 45
Wind_Direction
129 127 124 121 119 117 117 120 120 118 120 122 122 121 121 118 116 118 119 119 119 120 119 116 115 116 114 112 110 109 107 104 102 99 96 92 89 87 86 84 81 79
131 130 129 128 126 123 122 123 123 123 125 127 126 125 123 122 120 119 119 120 120 120 119 117 115 114 112 110 109 107 104 101 99 97 94 91 89 87 86 84 81 78
135 134 134 134 133 130 129 130 130 130 132 132 131 129 126 125 124 122 122 122 121 121 120 116 114 112 110 108 107 105 101 99 98 96 95 93 90 87 84 81 78 75
143 141 141 140 139 136 135 137 137 136 137 137 135 133 130 128 127 126 126 126 124 123 122 118 114 112 111 108 106 104 101 98 97 94 92 89 85 83 80 76 73 71
152 151 151 150 147 145 143 143 144 143 143 142 139 138 137 135 135 133 134 133 130 129 126 122 119 117 115 113 111 109 106 101 98 92 87 82 78 76 72 71 68 64
160 159 159 158 156 152 150 150 150 149 150 150 149 148 147 148 149 145 143 140 138 137 134 131 128 126 124 122 120 119 116 110 101 88 77 66 61 60 57 56 53 50
163 165 165 163 162 159 157 156 156 156 156 158 158 157 153 153 154 153 151 148 146 145 143 141 137 135 134 134 134 130 122 113 93 59 41 29 24 27 29 25 25 26
168 167 167 167 165 163 162 161 161 162 162 162 161 159 156 156 158 160 159 156 154 153 152 151 150 151 159 173 185 193 236 308 329 339 342 343 346 350 353 350 351 354
171 172 171 170 169 167 165 164 163 164 164 165 164 163 163 164 166 168 169 171 173 174 177 187 208 228 248 265 271 270 276 282 290 298 304 309 318 323 320 320 323 324
170 174 175 175 174 172 170 168 167 166 165 166 166 166 165 165 168 172 174 177 180 191 235 264 274 272 267 267 271 272 270 271 272 275 280 287 296 301 298 296 298 299
167 170 174 177 179 180 179 178 177 175 173 172 172 173 173 170 169 166 161 170 191 209 224 225 230 247 256 257 259 265 268 268 268 268 271 277 284 287 287 287 290 290
180 174 170 173 178 182 186 188 189 188 186 184 184 184 185 181 176 174 182 199 208 212 219 219 219 228 239 241 242 252 264 268 268 268 268 271 275 278 280 281 283 285
203 197 189 183 180 181 184 189 193 196 196 197 197 196 195 192 189 192 200 208 213 214 217 223 227 230 235 242 244 250 261 266 266 267 268 270 272 273 274 275 278 280
218 215 211 206 200 193 190 190 192 195 197 200 202 203 203 203 201 202 208 212 216 218 218 222 229 234 238 243 245 249 257 261 262 264 265 267 269 270 271 273 274 277
226 226 225 222 217 212 207 204 202 200 200 201 204 204 205 208 208 207 210 214 219 223 224 225 229 236 239 239 240 246 253 254 255 257 259 261 264 266 268 269 271 274
230 231 231 230 228 225 222 221 218 215 214 213 215 213 212 214 214 211 213 217 222 228 230 230 233 237 241 241 242 246 249 249 250 251 252 255 259 261 264 266 269 272
232 233 234 234 234 233 232 230 228 227 225 225 227 226 224 225 226 224 224 226 229 235 238 239 240 241 242 244 248 251 250 250 252 253 254 256 258 260 263 264 267 271
237 237 239 240 241 241 240 238 236 234 232 231 233 234 232 231 232 233 236 237 239 241 243 246 248 247 245 245 249 254 256 256 257 259 261 263 263 264 267 270 273 276
241 242 243 243 243 244 246 247 246 244 241 238 239 240 240 239 238 239 241 244 246 248 249 251 253 254 252 251 254 258 261 263 264 265 267 268 268 270 274 278 280 281
242 244 244 242 243 245 249 252 253 252 249 246 245 246 247 247 247 248 249 251 253 256 257 258 258 259 259 259 261 262 264 266 267 268 268 268 268 271 275 279 281 281
244 246 247 246 247 248 250 254 255 254 253 251 251 251 251 251 252 254 256 258 260 261 262 262 262 262 262 262 263 264 265 266 267 269 269 269 270 273 277 279 280 280
245 246 247 248 249 250 250 252 254 256 257 257 256 256 255 254 254 254 256 259 262 264 265 265 265 264 264 264 265 265 266 267 268 270 270 271 272 274 276 277 277 277
245 245 244 244 247 250 250 251 253 255 258 259 259 259 258 257 256 256 258 261 263 265 267 268 269 268 266 266 266 266 266 267 268 269 271 273 274 275 276 277 277 278
244 245 243 243 246 248 250 251 253 256 260 262 261 259 258 257 256 257 260 264 266 266 266 268 269 270 270 270 270 270 269 268 267 268 269 270 272 273 275 276 277 278
244 244 243 243 244 246 248 252 257 261 264 263 258 253 251 251 253 255 258 261 264 265 266 267 269 270 270 271 273 275 274 271 268 268 268 268 270 272 273 274 276 278
243 244 244 244 246 246 246 249 255 260 262 260 256 252 251 251 252 254 255 255 258 262 266 269 269 268 266 267 270 274 276 274 272 271 270 269 269 270 273 275 278 279
Height
10980 10981 10981 10982 10983 10984 10984 10985 10986 10987 10987 10988 10989 10989 10990 10991 10991 10992 10993 10994 10994 10995 10996 10997 10998 10999 10999 11000 11001 11002 11003 11003 11004 11004 11005 11005 11006 11006 11005 11005 11005 11004
10981 10982 10982 10983 10984 10985 10986 10987 10988 10989 10990 10990 10991 10992 10993 10994 10994 10995 10996 10996 10997 10998 10999 11000 11000 11001 11002 11003 11004 11004 11005 11006 11006 11007 11007 11008 11008 11008 11007 11007 11007 11007
10982 10983 10983 10984 10985 10986 10987 10988 10989 10990 10991 10992 10993 10994 10995 10996 10997 10998 10998 10999 10999 11000 11001 11002 11003 11003 11004 11005 11006 11007 11007 11008 11008 11009 11009 11009 11009 11009 11009 11009 11009 11009
10983 10983 10984 10985 10986 10987 10988 10989 10990 10991 10992 10993 10994 10995 10996 10997 10998 10999 11000 11001 11002 11002 11003 11004 11004 11005 11006 11007 11008 11009 11009 11010 11010 11010 11011 11011 11011 11011 11011 11011 11010 11010
10983 10984 10985 10986 10987 10988 10988 10989 10990 10992 10993 10994 10995 10996 10997 10999 11000 11001 11002 11003 11003 11004 11004 11005 11006 11007 11008 11009 11010 11010 11011 11011 11012 11012 11012 11012 11012 11012 11012 11012 11012 11011
10984 10984 10985 10986 10987 10988 10989 10990 10991 10992 10993 10995 10996 10997 10998 10999 11001 11002 11003 11004 11005 11005 11006 11007 11008 11009 11010 11010 11011 11011 11012 11012 11013 11013 11013 11013 11013 11013 11013 11013 11012 11012
10984 10985 10985 10986 10987 10988 10989 10990 10991 10993 10994 10995 10996 10997 10999 11000 11001 11003 11004 11005 11006 11007 11008 11009 11010 11010 11011 11011 11012 11012 11013 11013 11013 11013 11013 11013 11013 11013 11013 11013 11013 11012
10983 10984 10985 10986 10987 10989 10990 10991 10992 10993 10994 10996 10997 10998 10999 11000 11002 11003 11005 11006 11007 11008 11009 11010 11011 11012 11012 11012 11012 11013 11013 11013 11013 11013 11013 11013 11013 11013 11013 11013 11013 11012
10983 10984 10985 10987 10988 10989 10990 10991 10992 10994 10995 10996 10997 10999 11000 11001 11003 11004 11006 11007 11008 11009 11010 11011 11012 11012 11012 11012 11012 11012 11012 11013 11013 11013 11013 11013 11013 11013 11013 11013 11012 11012
10983 10984 10985 10987 10988 10989 10990 10992 10993 10994 10995 10996 10998 10999 11000 11002 11003 11005 11006 11008 11010 11011 11012 11012 11012 11012 11011 11010 11010 11011 11011 11012 11012 11012 11012 11013 11012 11012 11012 11012 11012 11012
10984 10985 10986 10987 10988 10989 10990 10992 10993 10994 10995 10997 10998 10999 11000 11002 11003 11005 11008 11010 11010 11010 11009 11008 11008 11007 11007 11007 11008 11009 11010 11010 11011 11011 11012 11012 11012 11012 11012 11012 11011 11011
10984 10985 10986 10987 10988 10990 10991 10992 10993 10994 10995 10997 10998 10999 11000 11001 11002 11003 11004 11004 11004 11004 11005 11005 11004 11003 11004 11004 11005 11007 11008 11009 11010 11010 11010 11010 11010 11010 11010 11010 11010 11010
10984 10985 10986 10987 10988 10989 10990 10992 10993 10994 10995 10996 10997 10998 10999 11000 11001 11000 10999 10999 11000 11002 11004 11004 11005 11005 11005 11005 11006 11007 11007 11008 11008 11009 11009 11008 11008 11008 11008 11009 11009 11008
10982 10984 10985 10986 10987 10989 10990 10991 10993 10994 10995 10996 10997 10998 10999 10999 10999 10999 10999 10999 11000 11001 11001 11002 11003 11004 11005 11005 11006 11006 11006 11007 11007 11007 11007 11006 11006 11006 11007 11007 11007 11007
10981 10982 10984 10985 10986 10988 10989 10991 10992 10993 10995 10996 10996 10997 10998 10998 10999 10999 11000 10999 10999 10999 11000 11001 11002 11003 11004 11004 11004 11005 11005 11005 11005 11005 11004 11004 11004 11005 11005 11005 11005 11005
10979 10980 10982 10984 10985 10987 10989 10990 10991 10993 10994 10995 10995 10996 10997 10997 10998 10999 10999 10999 10999 10999 10999 11001 11002 11002 11003 11003 11003 11003 11003 11003 11003 11002 11002 11002 11002 11003 11003 11003 11002 11003
10977 10978 10980 10982 10984 10986 10987 10989 10990 10991 10992 10993 10994 10994 10996 10996 10996 10997 10997 10998 10998 10998 10998 10999 11000 11001 11001 11001 11001 11001 11001 11001 11000 11000 11000 11000 11001 11001 11001 11000 11000 11000
10975 10977 10979 10981 10984 10985 10986 10987 10988 10989 10990 10991 10992 10992 10993 10994 10994 10995 10995 10996 10996 10996 10997 10997 10998 10999 10999 10999 10999 11000 10999 10999 10998 10998 10998 10998 10999 10999 10999 10998 10998 10998
10973 10975 10978 10979 10981 10983 10984 10985 10986 10987 10988 10989 10990 10990 10990 10991 10992 10992 10993 10993 10993 10994 10995 10996 10996 10996 10997 10997 10997 10997 10997 10997 10996 10996 10996 10996 10996 10996 10996 10996 10996 10995
10971 10973 10974 10976 10978 10980 10981 10983 10984 10985 10987 10987 10987 10987 10987 10988 10989 10990 10990 10990 10991 10992 10993 10993 10993 10994 10994 10994 10994 10994 10994 10994 10993 10993 10993 10993 10993 10993 10993 10993 10993 10993
10969 10970 10971 10974 10976 10977 10979 10980 10981 10982 10983 10984 10984 10984 10984 10984 10985 10985 10986 10987 10988 10989 10990 10990 10990 10990 10991 10991 10990 10990 10990 10990 10990 10989 10989 10989 10989 10989 10990 10990 10990 10990
10966 10967 10969 10971 10973 10974 10976 10977 10978 10978 10979 10979 10980 10980 10980 10980 10980 10980 10981 10982 10983 10984 10985 10986 10986 10986 10987 10987 10987 10986 10986 10986 10986 10985 10985 10985 10985 10985 10985 10985 10985 10985
10963 10964 10965 10967 10969 10970 10972 10973 10974 10975 10974 10974 10975 10975 10975 10975 10975 10976 10977 10978 10979 10979 10980 10981 10981 10982 10982 10982 10982 10982 10982 10982 10981 10981 10981 10981 10981 10981 10980 10980 10980 10980
10960 10961 10962 10963 10965 10966 10968 10970 10971 10970 10969 10969 10971 10971 10969 10967 10968 10971 10973 10974 10974 10975 10975 10976 10977 10978 10978 10978 10978 10977 10977 10977 10977 10977 10977 10978 10978 10976 10975 10975 10975 10974
10955 10956 10957 10959 10961 10963 10964 10966 10967 10966 10965 10964 10965 10965 10961 10959 10962 10967 10969 10970 10970 10970 10971 10972 10973 10973 10974 10974 10973 10973 10972 10972 10972 10972 10973 10974 10974 10971 10970 10970 10969 10969
10948 10950 10952 10954 10956 10958 10960 10962 10963 10962 10959 10956 10957 10958 10956 10956 10959 10962 10964 10965 10966 10966 10967 10968 10968 10968 10969 10969 10969 10968 10968 10967 10967 10967 10968 10969 10968 10965 10964 10965 10964 10963